Other Surface Observations
Issued by NWS Charleston, SC

Home | Current Version | Previous Version | Text Only | Print | Product List | Glossary On
Versions: 1 2 3 4 5 6 7 8 9 10 11 12 13 14 15 16 17 18 19 20 21 22 23 24 25 26 27 28 29 30 31 32 33 34 35 36 37 38 39 40 41 42 43 44 45 46 47 48 49 50
224
SXUS52 KCHS 091427
OSOCHS

MARINE OBSERVATIONS
NATIONAL WEATHER SERVICE CHARLESTON SC
900 AM EST TUE FEB 09 2016

...DOWNTOWN CHARLESTON AND HARBOR...

CITY           SKY/WX    TMP DP  RH WIND       PRES   REMARKS
WATERFRONT PRK   N/A     41  30  65 W7        29.70R

...LAKE MOULTRIE...

CITY           SKY/WX    TMP DP  RH WIND       PRES   REMARKS
PINOPOLIS        N/A     39  28  65 W14       29.77R WCI  31

...LAKE AND SUPPLEMENTAL COASTAL OBSERVATIONS...

STATION/POSITION TIME  TEMP    WIND        PRES    WAVE   SWELL
                       AIR SEA DIR/SP/G            HT/PER HT/PER/DIR
                 (UTC) (F)     (DEG/KT/KT) (MB)    (FT/S) (FT/S/D)
FORT PULASKI     1400   41 52  240/ 11/ 18 1012.9R
SAPELO ISLAND    1400   43     250/ 16     1014.0S
WINYAH BAY       1345   41     270/ 13     1008.0R
LAKE MURRAY      1400   38     280/ 15/ 23 1008.5R
ACE BASIN NERRS  1345   41     250/  7     1011.0S


...C-MAN AND BUOY OBSERVATIONS...

STATION/POSITION TIME  TEMP    WIND        PRES    WAVE   SWELL
                       AIR SEA DIR/SP/G            HT/PER HT/PER/DIR
                 (UTC) (F)     (DEG/KT/KT) (MB)    (FT/S) (FT/S/D)
BUOY 41004       1350   46 65  270/ 25/ 31 1010.0R   8/ 7   2/14
BUOY 41008       1350   44 55  270/ 25/ 31 1013.2R   5/ 5
FOLLY BEACH CMAN 1400   42     250/ 10/ 18 1011.6R
CAPERS NS BUOY   1308   42     280/ 19/ 27 1009.6R
FRIPP NS BUOY    1300   44     270/ 23/ 27 1011.2R
5E ST. MARYS GA  1321      56                N/A     4/ 4   2/ 80/17


STATION/POSITION TIME  TEMP    WIND        PRES    WAVE   SWELL
                       AIR SEA DIR/SP/G            HT/PER HT/PER/DIR
                 (UTC) (F)     (DEG/KT/KT) (MB)    (FT/S) (FT/S/D)
FRYING PAN BUOY  1400   47 63  270/ 25/ 31 1007.5R
BUOY 41025       1350   47 73  290/ 16/ 19 1002.8R  11/14  10/ 70/14
CAPE LOOKOUT NC  NOT AVBL
BUOY 41002       1350   59 69  280/ 31/ 39   N/A    17/10  11/260/10
BUOY 41010       1320   61 72              1013.0R
ST AUGUSTINE FL  1400   46 56  270/ 16/ 20 1016.7F

$$




USA.gov is the U.S. government's official web portal to all federal, state and local government web resources and services.